I2HLY-3 Weather Reports


Display with metric or nautical units.
time (UTC)temp
F
wind
direction
speed
MPH
gust
MPH
rain 1hr
in
rain 24hr
in
rain mn
in
humidity
%
barometer
mb
20260831141725 88 196 2.0 8.0 0.00 0.00 0.00 47 1011.8
20260831140235 88 251 4.0 8.0 0.00 0.00 0.00 47 1011.7
20260831134725 88 106 1.0 6.0 0.00 0.00 0.00 47 1011.8
20260831133236 87 180 5.0 8.0 0.00 0.00 0.00 50 1011.9
20260831131728 87 290 2.0 4.0 0.00 0.00 0.00 49 1012.0
20260831130220 88 275 2.0 7.0 0.00 0.00 0.00 47 1012.2
20260831124728 88 168 5.0 8.0 0.00 0.00 0.00 50 1012.4
20260831123233 88 163 4.0 7.0 0.00 0.00 0.00 48 1012.5
20260831121738 89 208 1.0 5.0 0.00 0.00 0.00 49 1012.5
20260831120236 89 156 5.0 10.0 0.00 0.00 0.00 51 1012.6
20260831114736 89 203 3.0 9.0 0.00 0.00 0.00 50 1012.7
20260831113219 89 166 1.0 7.0 0.00 0.00 0.00 48 1012.8
20260831111733 88 163 2.0 6.0 0.00 0.00 0.00 50 1013.1
20260831110225 88 235 2.0 5.0 0.00 0.00 0.00 47 1013.2
20260831104735 88 191 4.0 10.0 0.00 0.00 0.00 49 1013.2
20260831103225 88 211 3.0 5.0 0.00 0.00 0.00 52 1013.2
20260831101736 87 143 4.0 9.0 0.00 0.00 0.00 50 1013.3
20260831100227 87 200 2.0 6.0 0.00 0.00 0.00 52 1013.4
20260831094731 87 148 4.0 6.0 0.00 0.00 0.00 53 1013.5
20260831093222 86 178 4.0 7.0 0.00 0.00 0.00 53 1013.6
20260831091734 85 215 2.0 7.0 0.00 0.00 0.00 57 1013.6
20260831090236 84 186 1.0 4.0 0.00 0.00 0.00 59 1013.8
20260831084731 84 138 1.0 5.0 0.00 0.00 0.00 59 1013.7
20260831083230 84 180 2.0 4.0 0.00 0.00 0.00 61 1013.6
20260831081727 83 179 1.0 4.0 0.00 0.00 0.00 62 1013.5
20260831080218 83 171 1.0 3.0 0.00 0.00 0.00 60 1013.4
20260831074719 81 171 2.0 4.0 0.00 0.00 0.00 65 1013.5
20260831073236 81 166 2.0 6.0 0.00 0.00 0.00 67 1013.5
20260831071733 79 154 1.0 5.0 0.00 0.00 0.00 68 1013.5
20260831070226 79 134 2.0 3.0 0.00 0.00 0.00 72 1013.5
20260831064725 77 112 1.0 3.0 0.00 0.00 0.00 73 1013.3
20260831063229 73 112 0.0 2.0 0.00 0.00 0.00 84 1013.4
20260831061737 71 112 0.0 0.0 0.00 0.00 0.00 84 1013.4
20260831060220 69 112 0.0 0.0 0.00 0.00 0.00 90 1013.3
20260831054731 68 112 0.0 0.0 0.00 0.00 0.00 91 1013.2
20260831053232 66 112 0.0 0.0 0.00 0.00 0.00 93 1013.2
20260831051735 64 112 0.0 1.0 0.00 0.00 0.00 93 1013.0
20260831050230 64 113 0.0 0.0 0.00 0.00 0.00 93 1012.8
20260831044719 64 112 0.0 0.0 0.00 0.00 0.00 92 1012.9
20260831043230 65 112 0.0 0.0 0.00 0.00 0.00 93 1012.9
20260831041720 65 113 0.0 1.0 0.00 0.00 0.00 93 1013.0
20260831040232 65 112 0.0 2.0 0.00 0.00 0.00 93 1012.8
20260831034733 65 113 0.0 0.0 0.00 0.00 0.00 93 1012.8
20260831033236 64 112 0.0 1.0 0.00 0.00 0.00 93 1012.9
20260831031736 64 112 0.0 0.0 0.00 0.00 0.00 93 1013.0
20260831030238 64 112 0.0 0.0 0.00 0.00 0.00 93 1013.0
20260831024721 64 112 0.0 0.0 0.00 0.00 0.00 93 1012.9
20260831023232 64 112 0.0 0.0 0.00 0.00 0.00 92 1012.9
20260831021726 64 112 0.0 0.0 0.00 0.00 0.00 92 1012.9
20260831020220 65 112 0.0 0.0 0.00 0.00 0.00 92 1013.0
20260831014727 65 112 0.0 0.0 0.00 0.00 0.00 92 1013.1
20260831013232 65 112 0.0 0.0 0.00 0.00 0.00 91 1013.2
20260831011722 65 112 0.0 0.0 0.00 0.00 0.00 92 1013.1
20260831010228 65 112 0.0 0.0 0.00 0.00 0.00 91 1013.1
20260831004726 66 112 0.0 0.0 0.00 0.00 0.00 91 1013.3
20260831003220 66 112 0.0 0.0 0.00 0.00 0.00 91 1013.3
20260831001733 66 112 0.0 0.0 0.00 0.00 0.00 91 1013.3
20260831000221 66 112 0.0 0.0 0.00 0.00 0.00 90 1013.3
20260830234728 66 112 0.0 0.0 0.00 0.00 0.00 91 1013.3
20260830233222 66 112 0.0 0.0 0.00 0.00 0.00 90 1013.4
20260830231726 66 112 0.0 0.0 0.00 0.00 0.00 90 1013.5
20260830230218 67 112 0.0 0.0 0.00 0.00 0.00 90 1013.6
20260830224729 67 113 0.0 0.0 0.00 0.00 0.00 89 1013.7
20260830223224 67 113 0.0 1.0 0.00 0.00 0.00 90 1013.6
20260830221724 67 113 0.0 0.0 0.00 0.00 0.00 89 1013.5
20260830220231 67 112 0.0 0.0 0.00 0.00 0.00 88 1013.4
20260830214737 68 113 0.0 0.0 0.00 0.00 0.00 88 1013.4
20260830213221 68 112 0.0 0.0 0.00 0.00 0.00 88 1013.3
20260830211737 68 112 0.0 0.0 0.00 0.00 0.00 87 1013.3
20260830204720 69 112 0.0 0.0 0.00 0.00 0.00 86 1013.3
20260830203220 70 112 0.0 0.0 0.00 0.00 0.00 84 1013.2
20260830201736 70 112 0.0 0.0 0.00 0.00 0.00 83 1013.1
20260830200222 71 112 0.0 0.0 0.00 0.00 0.00 82 1013.0
20260830194726 71 112 0.0 1.0 0.00 0.00 0.00 79 1013.0
20260830193221 72 112 1.0 2.0 0.00 0.00 0.00 77 1013.0
20260830191733 73 112 1.0 2.0 0.00 0.00 0.00 73 1012.9
20260830184738 75 113 1.0 2.0 0.00 0.00 0.00 68 1012.6
20260830183236 77 112 0.0 1.0 0.00 0.00 0.00 66 1012.5
20260830181728 79 113 0.0 1.0 0.00 0.00 0.00 60 1012.3
20260830180220 81 113 0.0 1.0 0.00 0.00 0.00 56 1012.2
20260830174733 84 112 1.0 4.0 0.00 0.00 0.00 50 1012.1
20260830173221 85 112 2.0 4.0 0.00 0.00 0.00 48 1012.0
20260830171719 85 121 3.0 6.0 0.00 0.00 0.00 47 1011.9
20260830170239 85 104 2.0 7.0 0.00 0.00 0.00 46 1011.9
20260830164731 86 89 3.0 8.0 0.00 0.00 0.00 46 1012.0
20260830163223 86 99 5.0 8.0 0.00 0.00 0.00 46 1012.0
20260830161729 87 30 2.0 8.0 0.00 0.00 0.00 48 1012.0
20260830160231 86 47 3.0 5.0 0.00 0.00 0.00 44 1012.1
20260830154727 86 43 1.0 3.0 0.00 0.00 0.00 43 1012.0
20260830153236 86 38 1.0 5.0 0.00 0.00 0.00 42 1012.3
20260830151731 86 46 1.0 4.0 0.00 0.00 0.00 42 1012.3
20260830150229 86 106 2.0 4.0 0.00 0.00 0.00 44 1012.3
20260830144734 86 92 2.0 3.0 0.00 0.00 0.00 45 1012.4
20260830143221 86 160 5.0 9.0 0.00 0.00 0.00 45 1012.5